Year,Month,Day,Hour,Minute,Value (Times are PST for temperature in C)
2011,08,05,00,00,16.80
2011,08,05,00,01,16.80
2011,08,05,00,02,16.80
2011,08,05,00,03,16.80
2011,08,05,00,04,16.80
2011,08,05,00,05,16.80
2011,08,05,00,06,16.80
2011,08,05,00,07,16.70
2011,08,05,00,08,16.70
2011,08,05,00,09,16.70
2011,08,05,00,10,16.70
2011,08,05,00,11,16.70
2011,08,05,00,12,16.70
2011,08,05,00,13,16.70
2011,08,05,00,14,16.70
2011,08,05,00,15,16.70
2011,08,05,00,16,16.70
2011,08,05,00,17,16.70
2011,08,05,00,18,16.70
2011,08,05,00,19,16.70
2011,08,05,00,20,16.70
2011,08,05,00,21,16.70
2011,08,05,00,22,16.70
2011,08,05,00,23,16.60
2011,08,05,00,24,16.60
2011,08,05,00,25,16.60
2011,08,05,00,26,16.60
2011,08,05,00,27,16.60
2011,08,05,00,28,16.60
2011,08,05,00,29,16.60
2011,08,05,00,30,16.60
2011,08,05,00,31,16.60
2011,08,05,00,32,16.60
2011,08,05,00,33,16.60
2011,08,05,00,34,16.60
2011,08,05,00,35,16.60
2011,08,05,00,36,16.60
2011,08,05,00,37,16.60
2011,08,05,00,38,16.60
2011,08,05,00,39,16.60
2011,08,05,00,40,16.50
2011,08,05,00,41,16.50
2011,08,05,00,42,16.50
2011,08,05,00,43,16.50
2011,08,05,00,44,16.50
2011,08,05,00,45,16.50
2011,08,05,00,46,16.50
2011,08,05,00,47,16.40
2011,08,05,00,48,16.40
2011,08,05,00,49,16.40
2011,08,05,00,50,16.40
2011,08,05,00,51,16.40
2011,08,05,00,52,16.30
2011,08,05,00,53,16.30
2011,08,05,00,54,16.30
2011,08,05,00,55,16.30
2011,08,05,00,56,16.30
2011,08,05,00,57,16.30
2011,08,05,00,58,16.20
2011,08,05,00,59,16.20
2011,08,05,01,00,16.20
2011,08,05,01,01,16.20
2011,08,05,01,02,16.20
2011,08,05,01,03,16.20
2011,08,05,01,04,16.20
2011,08,05,01,05,16.10
2011,08,05,01,06,16.10
2011,08,05,01,07,16.10
2011,08,05,01,08,16.10
2011,08,05,01,09,16.10
2011,08,05,01,10,16.10
2011,08,05,01,11,16.10
2011,08,05,01,12,16.10
2011,08,05,01,13,16.00
2011,08,05,01,14,16.00
2011,08,05,01,15,16.00
2011,08,05,01,16,16.00
2011,08,05,01,17,15.90
2011,08,05,01,18,15.90
2011,08,05,01,19,15.90
2011,08,05,01,20,15.90
2011,08,05,01,21,15.90
2011,08,05,01,22,15.90
2011,08,05,01,23,15.90
2011,08,05,01,24,15.90
2011,08,05,01,25,15.90
2011,08,05,01,26,15.90
2011,08,05,01,27,15.80
2011,08,05,01,28,15.80
2011,08,05,01,29,15.80
2011,08,05,01,30,15.80
2011,08,05,01,31,15.80
2011,08,05,01,32,15.80
2011,08,05,01,33,15.80
2011,08,05,01,34,15.80
2011,08,05,01,35,15.80
2011,08,05,01,36,15.80
2011,08,05,01,37,15.70
2011,08,05,01,38,15.70
2011,08,05,01,39,15.70
2011,08,05,01,40,15.70
2011,08,05,01,41,15.70
2011,08,05,01,42,15.70
2011,08,05,01,43,15.70
2011,08,05,01,44,15.60
2011,08,05,01,45,15.60
2011,08,05,01,46,15.60
2011,08,05,01,47,15.60
2011,08,05,01,48,15.60
2011,08,05,01,49,15.60
2011,08,05,01,50,15.60
2011,08,05,01,51,15.60
2011,08,05,01,52,15.60
2011,08,05,01,53,15.60
2011,08,05,01,54,15.60
2011,08,05,01,55,15.50
2011,08,05,01,56,15.50
2011,08,05,01,57,15.50
2011,08,05,01,58,15.50
2011,08,05,01,59,15.50
2011,08,05,02,00,15.50
2011,08,05,02,01,15.50
2011,08,05,02,02,15.50
2011,08,05,02,03,15.50
2011,08,05,02,04,15.40
2011,08,05,02,05,15.40
2011,08,05,02,06,15.40
2011,08,05,02,07,15.40
2011,08,05,02,08,15.40
2011,08,05,02,09,15.40
2011,08,05,02,10,15.40
2011,08,05,02,11,15.40
2011,08,05,02,12,15.40
2011,08,05,02,13,15.40
2011,08,05,02,14,15.40
2011,08,05,02,15,15.40
2011,08,05,02,16,15.50
2011,08,05,02,17,15.50
2011,08,05,02,18,15.50
2011,08,05,02,19,15.50
2011,08,05,02,20,15.40
2011,08,05,02,21,15.40
2011,08,05,02,22,15.40
2011,08,05,02,23,15.40
2011,08,05,02,24,15.40
2011,08,05,02,25,15.40
2011,08,05,02,26,15.40
2011,08,05,02,27,15.40
2011,08,05,02,28,15.40
2011,08,05,02,29,15.40
2011,08,05,02,30,15.40
2011,08,05,02,31,15.40
2011,08,05,02,32,15.40
2011,08,05,02,33,15.40
2011,08,05,02,34,15.30
2011,08,05,02,35,15.30
2011,08,05,02,36,15.30
2011,08,05,02,37,15.30
2011,08,05,02,38,15.30
2011,08,05,02,39,15.30
2011,08,05,02,40,15.20
2011,08,05,02,41,15.20
2011,08,05,02,42,15.20
2011,08,05,02,43,15.20
2011,08,05,02,44,15.20
2011,08,05,02,45,15.20
2011,08,05,02,46,15.20
2011,08,05,02,47,15.20
2011,08,05,02,48,15.20
2011,08,05,02,49,15.20
2011,08,05,02,50,15.10
2011,08,05,02,51,15.10
2011,08,05,02,52,15.10
2011,08,05,02,53,15.10
2011,08,05,02,54,15.10
2011,08,05,02,55,15.10
2011,08,05,02,56,15.10
2011,08,05,02,57,15.10
2011,08,05,02,58,15.10
2011,08,05,02,59,15.10
2011,08,05,03,00,15.10
2011,08,05,03,01,15.10
2011,08,05,03,02,15.10
2011,08,05,03,03,15.00
2011,08,05,03,04,15.00
2011,08,05,03,05,15.00
2011,08,05,03,06,15.00
2011,08,05,03,07,15.00
2011,08,05,03,08,15.00
2011,08,05,03,09,15.00
2011,08,05,03,10,15.00
2011,08,05,03,11,14.90
2011,08,05,03,12,14.90
2011,08,05,03,13,14.90
2011,08,05,03,14,14.90
2011,08,05,03,15,14.90
2011,08,05,03,16,14.90
2011,08,05,03,17,14.90
2011,08,05,03,18,14.90
2011,08,05,03,19,14.90
2011,08,05,03,20,14.90
2011,08,05,03,21,14.90
2011,08,05,03,22,14.90
2011,08,05,03,23,14.90
2011,08,05,03,24,14.90
2011,08,05,03,25,14.90
2011,08,05,03,26,14.90
2011,08,05,03,27,14.90
2011,08,05,03,28,14.80
2011,08,05,03,29,14.80
2011,08,05,03,30,14.80
2011,08,05,03,31,14.80
2011,08,05,03,32,14.80
2011,08,05,03,33,14.80
2011,08,05,03,34,14.80
2011,08,05,03,35,14.80
2011,08,05,03,36,14.80
2011,08,05,03,37,14.80
2011,08,05,03,38,14.80
2011,08,05,03,39,14.80
2011,08,05,03,40,14.80
2011,08,05,03,41,14.80
2011,08,05,03,42,14.80
2011,08,05,03,43,14.80
2011,08,05,03,44,14.80
2011,08,05,03,45,14.80
2011,08,05,03,46,14.80
2011,08,05,03,47,14.80
2011,08,05,03,48,14.80
2011,08,05,03,49,14.80
2011,08,05,03,50,14.80
2011,08,05,03,51,14.80
2011,08,05,03,52,14.80
2011,08,05,03,53,14.80
2011,08,05,03,54,14.90
2011,08,05,03,55,14.90
2011,08,05,03,56,14.90
2011,08,05,03,57,14.90
2011,08,05,03,58,14.90
2011,08,05,03,59,14.90
2011,08,05,04,00,14.90
2011,08,05,04,01,14.90
2011,08,05,04,02,14.90
2011,08,05,04,03,14.80
2011,08,05,04,04,14.80
2011,08,05,04,05,14.80
2011,08,05,04,06,14.80
2011,08,05,04,07,14.80
2011,08,05,04,08,14.80
2011,08,05,04,09,14.80
2011,08,05,04,10,14.80
2011,08,05,04,11,14.80
2011,08,05,04,12,14.80
2011,08,05,04,13,14.80
2011,08,05,04,14,14.80
2011,08,05,04,15,14.80
2011,08,05,04,16,14.80
2011,08,05,04,17,14.80
2011,08,05,04,18,14.80
2011,08,05,04,19,14.80
2011,08,05,04,20,14.80
2011,08,05,04,21,14.80
2011,08,05,04,22,14.80
2011,08,05,04,23,14.80
2011,08,05,04,24,14.80
2011,08,05,04,25,14.90
2011,08,05,04,26,14.90
2011,08,05,04,27,14.90
2011,08,05,04,28,14.90
2011,08,05,04,29,14.90
2011,08,05,04,30,14.90
2011,08,05,04,31,14.90
2011,08,05,04,32,14.90
2011,08,05,04,33,14.90
2011,08,05,04,34,15.00
2011,08,05,04,35,15.00
2011,08,05,04,36,15.00
2011,08,05,04,37,15.00
2011,08,05,04,38,15.10
2011,08,05,04,39,15.10
2011,08,05,04,40,15.10
2011,08,05,04,41,15.10
2011,08,05,04,42,15.10
2011,08,05,04,43,15.10
2011,08,05,04,44,15.10
2011,08,05,04,45,15.10
2011,08,05,04,46,15.00
2011,08,05,04,47,15.00
2011,08,05,04,48,15.00
2011,08,05,04,49,15.00
2011,08,05,04,50,15.00
2011,08,05,04,51,15.00
2011,08,05,04,52,15.00
2011,08,05,04,53,15.00
2011,08,05,04,54,14.90
2011,08,05,04,55,14.90
2011,08,05,04,56,14.90
2011,08,05,04,57,14.90
2011,08,05,04,58,15.00
2011,08,05,04,59,14.90
2011,08,05,05,00,14.90
2011,08,05,05,01,14.90
2011,08,05,05,02,15.00
2011,08,05,05,03,15.00
2011,08,05,05,04,15.00
2011,08,05,05,05,15.00
2011,08,05,05,06,15.00
2011,08,05,05,07,15.00
2011,08,05,05,08,15.00
2011,08,05,05,09,15.00
2011,08,05,05,10,15.00
2011,08,05,05,11,15.00
2011,08,05,05,12,15.00
2011,08,05,05,13,15.00
2011,08,05,05,14,15.00
2011,08,05,05,15,15.00
2011,08,05,05,16,15.00
2011,08,05,05,17,15.00
2011,08,05,05,18,15.00
2011,08,05,05,19,15.00
2011,08,05,05,20,15.00
2011,08,05,05,21,15.00
2011,08,05,05,22,15.00
2011,08,05,05,23,15.00
2011,08,05,05,24,15.10
2011,08,05,05,25,15.10
2011,08,05,05,26,15.10
2011,08,05,05,27,15.10
2011,08,05,05,28,15.10
2011,08,05,05,29,15.10
2011,08,05,05,30,15.10
2011,08,05,05,31,15.10
2011,08,05,05,32,15.10
2011,08,05,05,33,15.10
2011,08,05,05,34,15.10
2011,08,05,05,35,15.10
2011,08,05,05,36,15.10
2011,08,05,05,37,15.10
2011,08,05,05,38,15.10
2011,08,05,05,39,15.10
2011,08,05,05,40,15.10
2011,08,05,05,41,15.10
2011,08,05,05,42,15.10
2011,08,05,05,43,15.10
2011,08,05,05,44,15.10
2011,08,05,05,45,15.10
2011,08,05,05,46,15.10
2011,08,05,05,47,15.20
2011,08,05,05,48,15.20
2011,08,05,05,49,15.20
2011,08,05,05,50,15.20
2011,08,05,05,51,15.20
2011,08,05,05,52,15.20
2011,08,05,05,53,15.20
2011,08,05,05,54,15.20
2011,08,05,05,55,15.20
2011,08,05,05,56,15.20
2011,08,05,05,57,15.20
2011,08,05,05,58,15.20
2011,08,05,05,59,15.20
2011,08,05,06,00,15.20
2011,08,05,06,01,15.20
2011,08,05,06,02,15.20
2011,08,05,06,03,15.20
2011,08,05,06,04,15.30
2011,08,05,06,05,15.30
2011,08,05,06,06,15.30
2011,08,05,06,07,15.30
2011,08,05,06,08,15.30
2011,08,05,06,09,15.30
2011,08,05,06,10,15.30
2011,08,05,06,11,15.30
2011,08,05,06,12,15.30
2011,08,05,06,13,15.30
2011,08,05,06,14,15.30
2011,08,05,06,15,15.30
2011,08,05,06,16,15.30
2011,08,05,06,17,15.30
2011,08,05,06,18,15.30
2011,08,05,06,19,15.30
2011,08,05,06,20,15.30
2011,08,05,06,21,15.30
2011,08,05,06,22,15.30
2011,08,05,06,23,15.30
2011,08,05,06,24,15.30
2011,08,05,06,25,15.30
2011,08,05,06,26,15.30
2011,08,05,06,27,15.30
2011,08,05,06,28,15.30
2011,08,05,06,29,15.30
2011,08,05,06,30,15.30
2011,08,05,06,31,15.30
2011,08,05,06,32,15.30
2011,08,05,06,33,15.30
2011,08,05,06,34,15.30
2011,08,05,06,35,15.30
2011,08,05,06,36,15.30
2011,08,05,06,37,15.30
2011,08,05,06,38,15.30
2011,08,05,06,39,15.30
2011,08,05,06,40,15.30
2011,08,05,06,41,15.40
2011,08,05,06,42,15.40
2011,08,05,06,43,15.40
2011,08,05,06,44,15.40
2011,08,05,06,45,15.40
2011,08,05,06,46,15.40
2011,08,05,06,47,15.40
2011,08,05,06,48,15.40
2011,08,05,06,49,15.40
2011,08,05,06,50,15.40
2011,08,05,06,51,15.40
2011,08,05,06,52,15.40
2011,08,05,06,53,15.50
2011,08,05,06,54,15.50
2011,08,05,06,55,15.50
2011,08,05,06,56,15.50
2011,08,05,06,57,15.50
2011,08,05,06,58,15.50
2011,08,05,06,59,15.50
2011,08,05,07,00,15.60
2011,08,05,07,01,15.60
2011,08,05,07,02,15.60
2011,08,05,07,03,15.60
2011,08,05,07,04,15.60
2011,08,05,07,05,15.50
2011,08,05,07,06,15.60
2011,08,05,07,07,15.60
2011,08,05,07,08,15.60
2011,08,05,07,09,15.60
2011,08,05,07,10,15.60
2011,08,05,07,11,15.60
2011,08,05,07,12,15.60
2011,08,05,07,13,15.60
2011,08,05,07,14,15.60
2011,08,05,07,15,15.60
2011,08,05,07,16,15.60
2011,08,05,07,17,15.60
2011,08,05,07,18,15.60
2011,08,05,07,19,15.60
2011,08,05,07,20,15.60
2011,08,05,07,21,15.60
2011,08,05,07,22,15.60
2011,08,05,07,23,15.60
2011,08,05,07,24,15.60
2011,08,05,07,25,15.60
2011,08,05,07,26,15.60
2011,08,05,07,27,15.60
2011,08,05,07,28,15.60
2011,08,05,07,29,15.60
2011,08,05,07,30,15.60
2011,08,05,07,31,15.60
2011,08,05,07,32,15.60
2011,08,05,07,33,15.60
2011,08,05,07,34,15.60
2011,08,05,07,35,15.60
2011,08,05,07,36,15.60
2011,08,05,07,37,15.60
2011,08,05,07,38,15.60
2011,08,05,07,39,15.60
2011,08,05,07,40,15.60
2011,08,05,07,41,15.70
2011,08,05,07,42,15.70
2011,08,05,07,43,15.70
2011,08,05,07,44,15.70
2011,08,05,07,45,15.70
2011,08,05,07,46,15.70
2011,08,05,07,47,15.70
2011,08,05,07,48,15.70
2011,08,05,07,49,15.70
2011,08,05,07,50,15.70
2011,08,05,07,51,15.70
2011,08,05,07,52,15.70
2011,08,05,07,53,15.70
2011,08,05,07,54,15.80
2011,08,05,07,55,15.80
2011,08,05,07,56,15.80
2011,08,05,07,57,15.80
2011,08,05,07,58,15.80
2011,08,05,07,59,15.80
2011,08,05,08,00,15.80
2011,08,05,08,01,15.80
2011,08,05,08,02,15.80
2011,08,05,08,03,15.80
2011,08,05,08,04,15.80
2011,08,05,08,05,15.80
2011,08,05,08,06,15.90
2011,08,05,08,07,15.90
2011,08,05,08,08,15.90
2011,08,05,08,09,15.90
2011,08,05,08,10,15.90
2011,08,05,08,11,15.90
2011,08,05,08,12,15.90
2011,08,05,08,13,16.00
2011,08,05,08,14,16.00
2011,08,05,08,15,16.00
2011,08,05,08,16,16.00
2011,08,05,08,17,16.00
2011,08,05,08,18,16.00
2011,08,05,08,19,16.00
2011,08,05,08,20,16.00
2011,08,05,08,21,16.10
2011,08,05,08,22,16.10
2011,08,05,08,23,16.10
2011,08,05,08,24,16.10
2011,08,05,08,25,16.10
2011,08,05,08,26,16.10
2011,08,05,08,27,16.10
2011,08,05,08,28,16.10
2011,08,05,08,29,16.10
2011,08,05,08,30,16.10
2011,08,05,08,31,16.10
2011,08,05,08,32,16.10
2011,08,05,08,33,16.10
2011,08,05,08,34,16.10
2011,08,05,08,35,16.10
2011,08,05,08,36,16.10
2011,08,05,08,37,16.10
2011,08,05,08,38,16.10
2011,08,05,08,39,16.10
2011,08,05,08,40,16.10
2011,08,05,08,41,16.10
2011,08,05,08,42,16.10
2011,08,05,08,43,16.10
2011,08,05,08,44,16.10
2011,08,05,08,45,16.20
2011,08,05,08,46,16.20
2011,08,05,08,47,16.20
2011,08,05,08,48,16.20
2011,08,05,08,49,16.20
2011,08,05,08,50,16.20
2011,08,05,08,51,16.20
2011,08,05,08,52,16.20
2011,08,05,08,53,16.30
2011,08,05,08,54,16.30
2011,08,05,08,55,16.30
2011,08,05,08,56,16.30
2011,08,05,08,57,16.30
2011,08,05,08,58,16.30
2011,08,05,08,59,16.30
2011,08,05,09,00,16.30
2011,08,05,09,01,16.30
2011,08,05,09,02,16.30
2011,08,05,09,03,16.30
2011,08,05,09,04,16.40
2011,08,05,09,05,16.40
2011,08,05,09,06,16.40
2011,08,05,09,07,16.50
2011,08,05,09,08,16.50
2011,08,05,09,09,16.60
2011,08,05,09,10,16.60
2011,08,05,09,11,16.60
2011,08,05,09,12,16.60
2011,08,05,09,13,16.60
2011,08,05,09,14,16.60
2011,08,05,09,15,16.70
2011,08,05,09,16,16.70
2011,08,05,09,17,16.70
2011,08,05,09,18,16.70
2011,08,05,09,19,16.70
2011,08,05,09,20,16.70
2011,08,05,09,21,16.70
2011,08,05,09,22,16.70
2011,08,05,09,23,16.70
2011,08,05,09,24,16.70
2011,08,05,09,25,16.70
2011,08,05,09,26,16.70
2011,08,05,09,27,16.70
2011,08,05,09,28,16.70
2011,08,05,09,29,16.70
2011,08,05,09,30,16.70
2011,08,05,09,31,16.70
2011,08,05,09,32,16.70
2011,08,05,09,33,16.80
2011,08,05,09,34,16.80
2011,08,05,09,35,16.80
2011,08,05,09,36,16.80
2011,08,05,09,37,16.90
2011,08,05,09,38,16.90
2011,08,05,09,39,16.90
2011,08,05,09,40,16.90
2011,08,05,09,41,16.90
2011,08,05,09,42,17.00
2011,08,05,09,43,17.00
2011,08,05,09,44,17.00
2011,08,05,09,45,17.00
2011,08,05,09,46,17.00
2011,08,05,09,47,17.00
2011,08,05,09,48,17.00
2011,08,05,09,49,17.10
2011,08,05,09,50,17.10
2011,08,05,09,51,17.10
2011,08,05,09,52,17.20
2011,08,05,09,53,17.20
2011,08,05,09,54,17.20
2011,08,05,09,55,17.30
2011,08,05,09,56,17.30
2011,08,05,09,57,17.30
2011,08,05,09,58,17.30
2011,08,05,09,59,17.30
2011,08,05,10,00,17.30
2011,08,05,10,01,17.30
2011,08,05,10,02,17.30
2011,08,05,10,03,17.30
2011,08,05,10,04,17.30
2011,08,05,10,05,17.30
2011,08,05,10,06,17.30
2011,08,05,10,07,17.30
2011,08,05,10,08,17.30
2011,08,05,10,09,17.30
2011,08,05,10,10,17.30
2011,08,05,10,11,17.30
2011,08,05,10,12,17.30
2011,08,05,10,13,17.30
2011,08,05,10,14,17.30
2011,08,05,10,15,17.30
2011,08,05,10,16,17.40
2011,08,05,10,17,17.40
2011,08,05,10,18,17.40
2011,08,05,10,19,17.40
2011,08,05,10,20,17.40
2011,08,05,10,21,17.40
2011,08,05,10,22,17.40
2011,08,05,10,23,17.40
2011,08,05,10,24,17.40
2011,08,05,10,25,17.40
2011,08,05,10,26,17.40
2011,08,05,10,27,17.40
2011,08,05,10,28,17.40
2011,08,05,10,29,17.40
2011,08,05,10,30,17.50
2011,08,05,10,31,17.50
2011,08,05,10,32,17.50
2011,08,05,10,33,17.50
2011,08,05,10,34,17.60
2011,08,05,10,35,17.60
2011,08,05,10,36,17.60
2011,08,05,10,37,17.60
2011,08,05,10,38,17.70
2011,08,05,10,39,17.70
2011,08,05,10,40,17.70
2011,08,05,10,41,17.80
2011,08,05,10,42,17.80
2011,08,05,10,43,17.80
2011,08,05,10,44,17.80
2011,08,05,10,45,17.80
2011,08,05,10,46,17.80
2011,08,05,10,47,17.80
2011,08,05,10,48,17.80
2011,08,05,10,49,17.80
2011,08,05,10,50,17.80
2011,08,05,10,51,17.80
2011,08,05,10,52,17.90
2011,08,05,10,53,17.90
2011,08,05,10,54,17.90
2011,08,05,10,55,17.90
2011,08,05,10,56,18.00
2011,08,05,10,57,18.00
2011,08,05,10,58,17.90
2011,08,05,10,59,17.90
2011,08,05,11,00,18.00
2011,08,05,11,01,18.00
2011,08,05,11,02,18.00
2011,08,05,11,03,18.00
2011,08,05,11,04,18.00
2011,08,05,11,05,18.00
2011,08,05,11,06,18.10
2011,08,05,11,07,18.00
2011,08,05,11,08,18.00
2011,08,05,11,09,18.00
2011,08,05,11,10,18.00
2011,08,05,11,11,18.10
2011,08,05,11,12,18.10
2011,08,05,11,13,18.10
2011,08,05,11,14,18.10
2011,08,05,11,15,18.10
2011,08,05,11,16,18.10
2011,08,05,11,17,18.10
2011,08,05,11,18,18.10
2011,08,05,11,19,18.10
2011,08,05,11,20,18.10
2011,08,05,11,21,18.10
2011,08,05,11,22,18.20
2011,08,05,11,23,18.20
2011,08,05,11,24,18.20
2011,08,05,11,25,18.20
2011,08,05,11,26,18.20
2011,08,05,11,27,18.20
2011,08,05,11,28,18.20
2011,08,05,11,29,18.20
2011,08,05,11,30,18.20
2011,08,05,11,31,18.30
2011,08,05,11,32,18.30
2011,08,05,11,33,18.40
2011,08,05,11,34,18.40
2011,08,05,11,35,18.40
2011,08,05,11,36,18.40
2011,08,05,11,37,18.50
2011,08,05,11,38,18.50
2011,08,05,11,39,18.60
2011,08,05,11,40,18.60
2011,08,05,11,41,18.70
2011,08,05,11,42,18.70
2011,08,05,11,43,18.70
2011,08,05,11,44,18.70
2011,08,05,11,45,18.70
2011,08,05,11,46,18.80
2011,08,05,11,47,18.80
2011,08,05,11,48,18.90
2011,08,05,11,49,18.90
2011,08,05,11,50,19.10
2011,08,05,11,51,19.10
2011,08,05,11,52,19.10
2011,08,05,11,53,19.10
2011,08,05,11,54,19.10
2011,08,05,11,55,19.10
2011,08,05,11,56,19.10
2011,08,05,11,57,19.20
2011,08,05,11,58,19.20
2011,08,05,11,59,19.30
2011,08,05,12,00,19.30
2011,08,05,12,01,19.40
2011,08,05,12,02,19.40
2011,08,05,12,03,19.30
2011,08,05,12,04,19.30
2011,08,05,12,05,19.30
2011,08,05,12,06,19.30
2011,08,05,12,07,19.30
2011,08,05,12,08,19.40
2011,08,05,12,09,19.50
2011,08,05,12,10,19.60
2011,08,05,12,11,19.70
2011,08,05,12,12,19.80
2011,08,05,12,13,19.90
2011,08,05,12,14,19.90
2011,08,05,12,15,19.90
2011,08,05,12,16,19.90
2011,08,05,12,17,19.90
2011,08,05,12,18,19.80
2011,08,05,12,19,19.80
2011,08,05,12,20,19.80
2011,08,05,12,21,19.80
2011,08,05,12,22,19.80
2011,08,05,12,23,19.80
2011,08,05,12,24,19.90
2011,08,05,12,25,19.90
2011,08,05,12,26,20.00
2011,08,05,12,27,20.10
2011,08,05,12,28,20.20
2011,08,05,12,29,20.20
2011,08,05,12,30,20.20
2011,08,05,12,31,20.20
2011,08,05,12,32,20.20
2011,08,05,12,33,20.20
2011,08,05,12,34,20.10
2011,08,05,12,35,20.10
2011,08,05,12,36,20.10
2011,08,05,12,37,20.10
2011,08,05,12,38,20.20
2011,08,05,12,39,20.20
2011,08,05,12,40,20.30
2011,08,05,12,41,20.30
2011,08,05,12,42,20.30
2011,08,05,12,43,20.30
2011,08,05,12,44,20.30
2011,08,05,12,45,20.30
2011,08,05,12,46,20.30
2011,08,05,12,47,20.30
2011,08,05,12,48,20.40
2011,08,05,12,49,20.40
2011,08,05,12,50,20.40
2011,08,05,12,51,20.40
2011,08,05,12,52,20.40
2011,08,05,12,53,20.40
2011,08,05,12,54,20.40
2011,08,05,12,55,20.40
2011,08,05,12,56,20.40
2011,08,05,12,57,20.40
2011,08,05,12,58,20.40
2011,08,05,12,59,20.40
2011,08,05,13,00,20.40
2011,08,05,13,01,20.50
2011,08,05,13,02,20.60
2011,08,05,13,03,20.60
2011,08,05,13,04,20.70
2011,08,05,13,05,20.60
2011,08,05,13,06,20.60
2011,08,05,13,07,20.60
2011,08,05,13,08,20.60
2011,08,05,13,09,20.60
2011,08,05,13,10,20.70
2011,08,05,13,11,20.70
2011,08,05,13,12,20.70
2011,08,05,13,13,20.70
2011,08,05,13,14,20.80
2011,08,05,13,15,20.80
2011,08,05,13,16,20.90
2011,08,05,13,17,20.90
2011,08,05,13,18,20.90
2011,08,05,13,19,20.90
2011,08,05,13,20,21.00
2011,08,05,13,21,21.00
2011,08,05,13,22,21.10
2011,08,05,13,23,21.20
2011,08,05,13,24,21.30
2011,08,05,13,25,21.30
2011,08,05,13,26,21.30
2011,08,05,13,27,21.30
2011,08,05,13,28,21.30
2011,08,05,13,29,21.30
2011,08,05,13,30,21.40
2011,08,05,13,31,21.40
2011,08,05,13,32,21.50
2011,08,05,13,33,21.50
2011,08,05,13,34,21.50
2011,08,05,13,35,21.60
2011,08,05,13,36,21.70
2011,08,05,13,37,21.70
2011,08,05,13,38,21.70
2011,08,05,13,39,21.60
2011,08,05,13,40,21.60
2011,08,05,13,41,21.60
2011,08,05,13,42,21.60
2011,08,05,13,43,21.60
2011,08,05,13,44,21.60
2011,08,05,13,45,21.60
2011,08,05,13,46,21.50
2011,08,05,13,47,21.50
2011,08,05,13,48,21.50
2011,08,05,13,49,21.60
2011,08,05,13,50,21.60
2011,08,05,13,51,21.60
2011,08,05,13,52,21.60
2011,08,05,13,53,21.60
2011,08,05,13,54,21.70
2011,08,05,13,55,21.70
2011,08,05,13,56,21.70
2011,08,05,13,57,21.70
2011,08,05,13,58,21.80
2011,08,05,13,59,21.80
2011,08,05,14,00,21.80
2011,08,05,14,01,21.90
2011,08,05,14,02,22.00
2011,08,05,14,03,22.10
2011,08,05,14,04,22.10
2011,08,05,14,05,22.10
2011,08,05,14,06,22.10
2011,08,05,14,07,22.10
2011,08,05,14,08,22.20
2011,08,05,14,09,22.20
2011,08,05,14,10,22.30
2011,08,05,14,11,22.40
2011,08,05,14,12,22.40
2011,08,05,14,13,22.40
2011,08,05,14,14,22.40
2011,08,05,14,15,22.50
2011,08,05,14,16,22.50
2011,08,05,14,17,22.60
2011,08,05,14,18,22.70
2011,08,05,14,19,22.80
2011,08,05,14,20,22.90
2011,08,05,14,21,23.00
2011,08,05,14,22,23.00
2011,08,05,14,23,23.00
2011,08,05,14,24,22.90
2011,08,05,14,25,22.80
2011,08,05,14,26,22.60
2011,08,05,14,27,22.50
2011,08,05,14,28,22.50
2011,08,05,14,29,22.40
2011,08,05,14,30,22.40
2011,08,05,14,31,22.50
2011,08,05,14,32,22.60
2011,08,05,14,33,22.60
2011,08,05,14,34,22.60
2011,08,05,14,35,22.60
2011,08,05,14,36,22.50
2011,08,05,14,37,22.50
2011,08,05,14,38,22.60
2011,08,05,14,39,22.60
2011,08,05,14,40,22.70
2011,08,05,14,41,22.60
2011,08,05,14,42,22.60
2011,08,05,14,43,22.70
2011,08,05,14,44,22.80
2011,08,05,14,45,22.70
2011,08,05,14,46,22.60
2011,08,05,14,47,22.60
2011,08,05,14,48,22.50
2011,08,05,14,49,22.50
2011,08,05,14,50,22.60
2011,08,05,14,51,22.70
2011,08,05,14,52,22.80
2011,08,05,14,53,22.90
2011,08,05,14,54,23.00
2011,08,05,14,55,23.00
2011,08,05,14,56,22.90
2011,08,05,14,57,22.80
2011,08,05,14,58,22.80
2011,08,05,14,59,22.80
2011,08,05,15,00,22.90
2011,08,05,15,01,23.00
2011,08,05,15,02,23.00
2011,08,05,15,03,22.90
2011,08,05,15,04,23.00
2011,08,05,15,05,23.00
2011,08,05,15,06,22.90
2011,08,05,15,07,22.90
2011,08,05,15,08,23.00
2011,08,05,15,09,23.10
2011,08,05,15,10,23.10
2011,08,05,15,11,23.00
2011,08,05,15,12,22.90
2011,08,05,15,13,22.90
2011,08,05,15,14,22.90
2011,08,05,15,15,22.80
2011,08,05,15,16,22.80
2011,08,05,15,17,22.90
2011,08,05,15,18,22.90
2011,08,05,15,19,22.90
2011,08,05,15,20,22.80
2011,08,05,15,21,22.80
2011,08,05,15,22,22.80
2011,08,05,15,23,22.90
2011,08,05,15,24,22.80
2011,08,05,15,25,22.80
2011,08,05,15,26,22.80
2011,08,05,15,27,22.80
2011,08,05,15,28,22.80
2011,08,05,15,29,22.70
2011,08,05,15,30,22.70
2011,08,05,15,31,22.70
2011,08,05,15,32,22.70
2011,08,05,15,33,22.70
2011,08,05,15,34,22.60
2011,08,05,15,35,22.60
2011,08,05,15,36,22.60
2011,08,05,15,37,22.70
2011,08,05,15,38,22.70
2011,08,05,15,39,22.70
2011,08,05,15,40,22.80
2011,08,05,15,41,22.80
2011,08,05,15,42,22.80
2011,08,05,15,43,22.80
2011,08,05,15,44,22.80
2011,08,05,15,45,22.80
2011,08,05,15,46,22.80
2011,08,05,15,47,22.70
2011,08,05,15,48,22.70
2011,08,05,15,49,22.70
2011,08,05,15,50,22.70
2011,08,05,15,51,22.70
2011,08,05,15,52,22.60
2011,08,05,15,53,22.50
2011,08,05,15,54,22.50
2011,08,05,15,55,22.50
2011,08,05,15,56,22.60
2011,08,05,15,57,22.60
2011,08,05,15,58,22.60
2011,08,05,15,59,22.60
2011,08,05,16,00,22.70
2011,08,05,16,01,22.70
2011,08,05,16,02,22.70
2011,08,05,16,03,22.80
2011,08,05,16,04,22.80
2011,08,05,16,05,22.90
2011,08,05,16,06,23.00
2011,08,05,16,07,23.10
2011,08,05,16,08,23.00
2011,08,05,16,09,23.00
2011,08,05,16,10,23.00
2011,08,05,16,11,22.90
2011,08,05,16,12,22.90
2011,08,05,16,13,22.90
2011,08,05,16,14,22.90
2011,08,05,16,15,23.00
2011,08,05,16,16,23.00
2011,08,05,16,17,23.10
2011,08,05,16,18,23.10
2011,08,05,16,19,23.10
2011,08,05,16,20,23.10
2011,08,05,16,21,23.20
2011,08,05,16,22,23.20
2011,08,05,16,23,23.20
2011,08,05,16,24,23.20
2011,08,05,16,25,23.10
2011,08,05,16,26,23.20
2011,08,05,16,27,23.30
2011,08,05,16,28,23.20
2011,08,05,16,29,23.10
2011,08,05,16,30,23.10
2011,08,05,16,31,23.00
2011,08,05,16,32,23.00
2011,08,05,16,33,22.90
2011,08,05,16,34,22.90
2011,08,05,16,35,22.90
2011,08,05,16,36,22.90
2011,08,05,16,37,22.90
2011,08,05,16,38,22.90
2011,08,05,16,39,22.90
2011,08,05,16,40,22.90
2011,08,05,16,41,22.90
2011,08,05,16,42,22.80
2011,08,05,16,43,22.80
2011,08,05,16,44,22.80
2011,08,05,16,45,22.80
2011,08,05,16,46,22.80
2011,08,05,16,47,22.90
2011,08,05,16,48,22.90
2011,08,05,16,49,22.80
2011,08,05,16,50,22.70
2011,08,05,16,51,22.70
2011,08,05,16,52,22.60
2011,08,05,16,53,22.40
2011,08,05,16,54,22.30
2011,08,05,16,55,22.20
2011,08,05,16,56,22.20
2011,08,05,16,57,22.20
2011,08,05,16,58,22.30
2011,08,05,16,59,22.30
2011,08,05,17,00,22.40
2011,08,05,17,01,22.40
2011,08,05,17,02,22.40
2011,08,05,17,03,22.50
2011,08,05,17,04,22.50
2011,08,05,17,05,22.60
2011,08,05,17,06,22.60
2011,08,05,17,07,22.60
2011,08,05,17,08,22.60
2011,08,05,17,09,22.60
2011,08,05,17,10,22.60
2011,08,05,17,11,22.70
2011,08,05,17,12,22.70
2011,08,05,17,13,22.70
2011,08,05,17,14,22.80
2011,08,05,17,15,22.70
2011,08,05,17,16,22.60
2011,08,05,17,17,22.50
2011,08,05,17,18,22.40
2011,08,05,17,19,22.40